When you browse on this site, cookies collect data to enhance your experience and personalize the content and advertising you see.
Visit our Privacy Policy to learn more. By continuing to use the site, you agree to this use of cookies and data.
  • In Hungary
  • List of Countries
  • For 7 days
  • Water Temperature
  • Weather Map
  • News
  • Weather Widgets
  • user-avatar
    Login

    Hourly Weather Krasnaya Zvezda

    Today, 25 January, Saturday

    Time Temperature Precipitation Wind Pressure Humidity
    00:00 -6°C° 0.1 mm 8 mps 740 mmHg 93%
    01:00 -6°C° 0.7 mm 8 mps 740 mmHg 94%
    02:00 -6°C° 0.7 mm 8 mps 740 mmHg 95%
    03:00 -6°C° 0.7 mm 8 mps 739 mmHg 95%
    04:00 -5°C° 0.2 mm 8 mps 739 mmHg 96%
    05:00 -3°C° 0.2 mm 7 mps 738 mmHg 97%
    06:00 -2°C° 0.2 mm 7 mps 738 mmHg 97%
    07:00 -2°C° 0.2 mm 7 mps 738 mmHg 98%
    08:00 -2°C° 0.2 mm 7 mps 738 mmHg 98%
    09:00 -2°C° 0.2 mm 6 mps 738 mmHg 99%
    10:00 -2°C° 0.1 mm 7 mps 738 mmHg 99%
    11:00 -2°C° 0.1 mm 7 mps 738 mmHg 99%
    12:00 -2°C° 0.1 mm 7 mps 738 mmHg 99%
    13:00 -2°C° 0 mm 7 mps 738 mmHg 99%
    14:00 -2°C° 0 mm 7 mps 738 mmHg 98%
    15:00 -2°C° 0 mm 7 mps 738 mmHg 98%
    16:00 -2°C° 0.1 mm 7 mps 738 mmHg 96%
    17:00 -2°C° 0.1 mm 7 mps 737 mmHg 95%
    18:00 -2°C° 0.1 mm 7 mps 737 mmHg 93%
    19:00 -2°C° 0.3 mm 8 mps 737 mmHg 94%
    20:00 -2°C° 0.3 mm 8 mps 736 mmHg 96%
    21:00 -3°C° 0.3 mm 9 mps 736 mmHg 97%
    22:00 -2°C° 0.2 mm 8 mps 736 mmHg 94%
    23:00 -4°C° 0.2 mm 8 mps 736 mmHg 90%

    Tomorrow, 26 January, Sunday

    Time Temperature Precipitation Wind Pressure Humidity
    00:00 -4°C° 0.2 mm 8 mps 736 mmHg 87%
    01:00 -5°C° 0 mm 8 mps 736 mmHg 86%
    02:00 -6°C° 0 mm 7 mps 737 mmHg 86%
    03:00 -7°C° 0 mm 7 mps 738 mmHg 85%
    04:00 -8°C° 0 mm 7 mps 738 mmHg 86%
    05:00 -8°C° 0 mm 7 mps 738 mmHg 87%
    06:00 -8°C° 0 mm 8 mps 739 mmHg 88%
    07:00 -8°C° 0 mm 8 mps 739 mmHg 88%
    08:00 -8°C° 0 mm 8 mps 740 mmHg 89%
    09:00 -8°C° 0 mm 8 mps 741 mmHg 89%
    10:00 -7°C° 0 mm 8 mps 742 mmHg 88%
    11:00 -7°C° 0 mm 8 mps 743 mmHg 88%
    12:00 -7°C° 0 mm 8 mps 744 mmHg 87%
    13:00 -7°C° 0 mm 7 mps 745 mmHg 87%
    14:00 -7°C° 0 mm 7 mps 746 mmHg 87%
    15:00 -7°C° 0 mm 7 mps 746 mmHg 87%
    16:00 -8°C° 0 mm 6 mps 747 mmHg 88%
    17:00 -8°C° 0 mm 5 mps 748 mmHg 90%
    18:00 -9°C° 0 mm 4 mps 748 mmHg 92%
    19:00 -9°C° 0 mm 4 mps 748 mmHg 92%
    20:00 -10°C° 0 mm 5 mps 749 mmHg 92%
    21:00 -10°C° 0 mm 5 mps 749 mmHg 92%
    22:00 -10°C° 0 mm 5 mps 748 mmHg 92%
    23:00 -8°C° 0 mm 5 mps 748 mmHg 91%

    Day after tomorrow, 27 January, Monday

    Time Temperature Precipitation Wind Pressure Humidity
    00:00 -8°C° 0 mm 5 mps 748 mmHg 91%
    01:00 -8°C° 0 mm 6 mps 748 mmHg 89%
    02:00 -8°C° 0 mm 6 mps 747 mmHg 88%
    03:00 -7°C° 0 mm 7 mps 747 mmHg 86%
    04:00 -7°C° 0 mm 7 mps 747 mmHg 88%
    05:00 -7°C° 0 mm 7 mps 746 mmHg 89%
    06:00 -7°C° 0 mm 7 mps 746 mmHg 91%
    07:00 -6°C° 0.1 mm 7 mps 746 mmHg 92%
    08:00 -4°C° 0.1 mm 7 mps 746 mmHg 92%
    09:00 -3°C° 0.1 mm 7 mps 746 mmHg 93%
    10:00 -3°C° 0 mm 7 mps 746 mmHg 94%
    11:00 -3°C° 0 mm 7 mps 746 mmHg 95%
    12:00 -2°C° 0 mm 7 mps 747 mmHg 96%
    13:00 -2°C° 0 mm 7 mps 747 mmHg 96%
    14:00 -2°C° 0 mm 6 mps 747 mmHg 96%
    15:00 -2°C° 0 mm 6 mps 747 mmHg 96%
    16:00 -1°C° 0 mm 5 mps 748 mmHg 97%
    17:00 -1°C° 0 mm 5 mps 748 mmHg 97%
    18:00 -2°C° 0 mm 4 mps 748 mmHg 97%
    19:00 -2°C° 0.1 mm 4 mps 749 mmHg 97%
    20:00 -2°C° 0.1 mm 4 mps 749 mmHg 97%
    21:00 -1°C° 0.1 mm 4 mps 749 mmHg 98%
    22:00 -1°C° 0 mm 3 mps 749 mmHg 98%
    23:00 -1°C° 0 mm 3 mps 750 mmHg 98%

    28 January, Tuesday

    Time Temperature Precipitation Wind Pressure Humidity
    00:00 -1°C° 0 mm 3 mps 750 mmHg 98%
    01:00 -1°C° 0 mm 3 mps 750 mmHg 97%
    02:00 -2°C° 0 mm 2 mps 750 mmHg 97%
    03:00 -2°C° 0 mm 2 mps 750 mmHg 97%
    04:00 -2°C° 0.1 mm 2 mps 750 mmHg 97%
    05:00 -2°C° 0.1 mm 2 mps 750 mmHg 97%
    06:00 -3°C° 0.1 mm 2 mps 750 mmHg 97%
    07:00 -3°C° 0.1 mm 2 mps 750 mmHg 97%
    08:00 -4°C° 0.1 mm 3 mps 750 mmHg 97%
    09:00 -4°C° 0.1 mm 3 mps 750 mmHg 97%
    10:00 -2°C° 0.2 mm 3 mps 750 mmHg 98%
    11:00 -2°C° 0.2 mm 3 mps 750 mmHg 98%
    12:00 -1°C° 0.2 mm 3 mps 750 mmHg 98%
    13:00 -2°C° 0.2 mm 4 mps 749 mmHg 98%
    14:00 -2°C° 0.2 mm 4 mps 749 mmHg 98%
    15:00 -2°C° 0.2 mm 4 mps 749 mmHg 98%
    16:00 -2°C° 0 mm 4 mps 749 mmHg 98%
    17:00 -1°C° 0 mm 4 mps 749 mmHg 98%
    18:00 0°C° 0 mm 3 mps 749 mmHg 98%
    19:00 -1°C° 0.1 mm 4 mps 749 mmHg 98%
    20:00 -1°C° 0.1 mm 4 mps 749 mmHg 98%
    21:00 -1°C° 0.1 mm 4 mps 749 mmHg 98%
    22:00 -1°C° 0.2 mm 4 mps 749 mmHg 98%
    23:00 -1°C° 0.2 mm 4 mps 749 mmHg 98%

    29 January, Wednesday

    Time Temperature Precipitation Wind Pressure Humidity
    00:00 -1°C° 0.2 mm 4 mps 749 mmHg 98%
    01:00 -1°C° 0.1 mm 4 mps 749 mmHg 98%
    02:00 0°C° 0.1 mm 3 mps 749 mmHg 98%
    03:00 0°C° 0.1 mm 3 mps 749 mmHg 98%
    04:00 0°C° 0.3 mm 3 mps 748 mmHg 98%
    05:00 -1°C° 0.3 mm 4 mps 748 mmHg 98%
    06:00 -1°C° 0.3 mm 4 mps 748 mmHg 98%
    07:00 -1°C° 0.2 mm 4 mps 748 mmHg 99%
    08:00 0°C° 0.2 mm 3 mps 748 mmHg 99%
    09:00 0°C° 0.2 mm 3 mps 748 mmHg 99%
    10:00 0°C° 0.1 mm 3 mps 748 mmHg 99%
    11:00 -1°C° 0.1 mm 4 mps 748 mmHg 99%
    12:00 -1°C° 0.1 mm 4 mps 748 mmHg 100%
    13:00 -1°C° 0.1 mm 4 mps 748 mmHg 99%
    14:00 -1°C° 0.1 mm 4 mps 748 mmHg 99%
    15:00 -1°C° 0.1 mm 4 mps 747 mmHg 99%
    16:00 -1°C° 0 mm 4 mps 747 mmHg 99%
    17:00 -1°C° 0 mm 5 mps 747 mmHg 99%
    18:00 -1°C° 0 mm 5 mps 747 mmHg 98%
    19:00 -1°C° 0 mm 5 mps 747 mmHg 98%
    20:00 -2°C° 0 mm 6 mps 747 mmHg 98%
    21:00 -2°C° 0 mm 6 mps 746 mmHg 98%
    22:00 -2°C° 0.1 mm 6 mps 746 mmHg 98%
    23:00 -2°C° 0.1 mm 7 mps 746 mmHg 98%

    30 January, Thursday

    Time Temperature Precipitation Wind Pressure Humidity
    00:00 -2°C° 0.1 mm 7 mps 746 mmHg 98%
    01:00 -3°C° 0.1 mm 7 mps 745 mmHg 96%
    02:00 -3°C° 0.1 mm 7 mps 744 mmHg 95%
    03:00 -3°C° 0.1 mm 7 mps 743 mmHg 94%
    04:00 -3°C° 0.6 mm 7 mps 742 mmHg 96%
    05:00 -2°C° 0.6 mm 7 mps 741 mmHg 97%
    06:00 -2°C° 0.6 mm 7 mps 740 mmHg 99%
    07:00 -1°C° 0.6 mm 7 mps 740 mmHg 99%
    08:00 -1°C° 0.6 mm 7 mps 739 mmHg 99%
    09:00 -1°C° 0.6 mm 6 mps 739 mmHg 99%
    10:00 -1°C° 0.1 mm 6 mps 739 mmHg 99%
    11:00 -1°C° 0.1 mm 6 mps 739 mmHg 99%
    12:00 -2°C° 0.1 mm 6 mps 739 mmHg 99%
    13:00 -2°C° 0 mm 6 mps 740 mmHg 96%
    14:00 -2°C° 0 mm 6 mps 740 mmHg 93%
    15:00 -2°C° 0 mm 6 mps 741 mmHg 90%
    16:00 -2°C° 0 mm 5 mps 741 mmHg 91%
    17:00 -3°C° 0 mm 4 mps 742 mmHg 91%
    18:00 -4°C° 0 mm 3 mps 742 mmHg 92%
    19:00 -4°C° 0 mm 4 mps 742 mmHg 92%
    20:00 -4°C° 0 mm 4 mps 743 mmHg 92%
    21:00 -4°C° 0 mm 4 mps 743 mmHg 91%
    22:00 -4°C° 0 mm 4 mps 743 mmHg 92%
    23:00 -4°C° 0 mm 3 mps 743 mmHg 93%
    Show more